| time (UTC) | temp F | wind direction | speed MPH | gust MPH | rain 1hr in | rain 24hr in | rain mn in | humidity % | barometer mb |
| 20260510013018 | 63 | 310 | 4.0 | 7.0 | 0.00 | 0.00 | 0.00 | 84 | 1018.6 |
| 20260510011517 | 65 | 317 | 5.0 | 8.0 | 0.00 | 0.00 | 0.00 | 81 | 1018.7 |
| 20260510010017 | 67 | 4 | 4.0 | 9.0 | 0.00 | 0.00 | 0.00 | 80 | 1018.7 |
| 20260510004515 | 66 | 350 | 3.0 | 7.0 | 0.00 | 0.00 | 0.00 | 79 | 1018.7 |
| 20260510003023 | 67 | 322 | 2.0 | 8.0 | 0.00 | 0.00 | 0.00 | 78 | 1018.7 |
| 20260510001511 | 67 | 342 | 4.0 | 9.0 | 0.00 | 0.00 | 0.00 | 77 | 1018.7 |
| 20260510000012 | 68 | 342 | 3.0 | 8.0 | 0.00 | 0.00 | 0.00 | 76 | 1018.9 |
| 20260509234513 | 69 | 315 | 4.0 | 8.0 | 0.00 | 0.00 | 0.00 | 74 | 1019.1 |
| 20260509233011 | 70 | 11 | 2.0 | 9.0 | 0.00 | 0.00 | 0.00 | 74 | 1019.2 |
| 20260509231504 | 70 | 309 | 3.0 | 9.0 | 0.00 | 0.00 | 0.00 | 67 | 1019.4 |
| 20260509230001 | 69 | 13 | 4.0 | 8.0 | 0.00 | 0.00 | 0.00 | 68 | 1019.6 |
| 20260509224602 | 68 | 324 | 2.0 | 8.0 | 0.00 | 0.00 | 0.00 | 68 | 1019.8 |
| 20260509223059 | 69 | 299 | 6.0 | 9.0 | 0.00 | 0.00 | 0.00 | 66 | 1019.8 |
| 20260509221556 | 69 | 14 | 3.0 | 10.0 | 0.00 | 0.00 | 0.00 | 67 | 1020.1 |
| 20260509220051 | 68 | 308 | 3.0 | 9.0 | 0.00 | 0.00 | 0.00 | 69 | 1020.4 |
| 20260509214546 | 67 | 328 | 4.0 | 9.0 | 0.00 | 0.00 | 0.00 | 69 | 1020.2 |
| 20260509213048 | 67 | 332 | 3.0 | 8.0 | 0.00 | 0.00 | 0.00 | 72 | 1020.5 |
| 20260509211549 | 66 | 320 | 2.0 | 9.0 | 0.00 | 0.00 | 0.00 | 76 | 1020.8 |
| 20260509210039 | 67 | 329 | 4.0 | 9.0 | 0.00 | 0.00 | 0.00 | 74 | 1020.8 |
| 20260509204536 | 67 | 345 | 7.0 | 11.0 | 0.00 | 0.00 | 0.00 | 77 | 1021.2 |
| 20260509203039 | 66 | 20 | 4.0 | 8.0 | 0.00 | 0.00 | 0.00 | 74 | 1021.4 |
| 20260509201531 | 66 | 305 | 3.0 | 10.0 | 0.00 | 0.00 | 0.00 | 76 | 1021.4 |
| 20260509200028 | 65 | 338 | 4.0 | 10.0 | 0.00 | 0.00 | 0.00 | 79 | 1021.6 |
| 20260509194529 | 65 | 270 | 7.0 | 10.0 | 0.00 | 0.00 | 0.00 | 80 | 1021.5 |
| 20260509193030 | 65 | 299 | 5.0 | 8.0 | 0.00 | 0.00 | 0.00 | 79 | 1021.5 |
| 20260509191524 | 64 | 346 | 3.0 | 8.0 | 0.00 | 0.00 | 0.00 | 81 | 1021.6 |
| 20260509190020 | 64 | 15 | 3.0 | 8.0 | 0.00 | 0.00 | 0.00 | 83 | 1022.0 |
| 20260509184526 | 63 | 300 | 4.0 | 9.0 | 0.00 | 0.00 | 0.00 | 84 | 1022.2 |
| 20260509183018 | 61 | 332 | 4.0 | 8.0 | 0.00 | 0.00 | 0.00 | 84 | 1022.5 |
| 20260509181512 | 61 | 357 | 3.0 | 8.0 | 0.00 | 0.00 | 0.00 | 87 | 1022.4 |
| 20260509180009 | 60 | 22 | 3.0 | 8.0 | 0.00 | 0.00 | 0.00 | 88 | 1022.5 |
| 20260509174507 | 59 | 321 | 4.0 | 8.0 | 0.00 | 0.00 | 0.00 | 88 | 1022.6 |
| 20260509173006 | 59 | 301 | 3.0 | 7.0 | 0.00 | 0.00 | 0.00 | 89 | 1022.6 |
| 20260509171505 | 60 | 317 | 3.0 | 7.0 | 0.00 | 0.00 | 0.00 | 88 | 1022.6 |
| 20260509170004 | 59 | 338 | 3.0 | 8.0 | 0.00 | 0.00 | 0.00 | 87 | 1022.5 |
| 20260509164502 | 59 | 7 | 1.0 | 4.0 | 0.00 | 0.00 | 0.00 | 90 | 1022.6 |
| 20260509163058 | 58 | 338 | 0.0 | 2.0 | 0.00 | 0.00 | 0.00 | 91 | 1022.8 |
| 20260509161558 | 56 | 68 | 1.0 | 4.0 | 0.00 | 0.00 | 0.00 | 94 | 1022.6 |
| 20260509160053 | 55 | 26 | 1.0 | 5.0 | 0.00 | 0.00 | 0.00 | 94 | 1022.7 |
| 20260509154550 | 55 | 104 | 0.0 | 3.0 | 0.00 | 0.00 | 0.00 | 98 | 1022.7 |
| 20260509153045 | 53 | 16 | 0.0 | 3.0 | 0.00 | 0.00 | 0.00 | 100 | 1023.3 |
| 20260509151544 | 51 | 15 | 1.0 | 4.0 | 0.00 | 0.00 | 0.00 | 100 | 1023.3 |
| 20260509150043 | 50 | 259 | 0.0 | 0.0 | 0.00 | 0.00 | 0.00 | 100 | 1023.3 |
| 20260509144543 | 48 | 259 | 0.0 | 0.0 | 0.00 | 0.00 | 0.00 | 100 | 1023.3 |
| 20260509143042 | 46 | 259 | 0.0 | 0.0 | 0.00 | 0.00 | 0.00 | 100 | 1023.6 |
| 20260509141541 | 45 | 259 | 0.0 | 0.0 | 0.00 | 0.00 | 0.00 | 100 | 1023.5 |
| 20260509140042 | 44 | 259 | 0.0 | 0.0 | 0.00 | 0.00 | 0.00 | 100 | 1023.5 |
| 20260509134540 | 44 | 259 | 0.0 | 0.0 | 0.00 | 0.00 | 0.00 | 100 | 1023.2 |
| 20260509133039 | 43 | 259 | 0.0 | 0.0 | 0.00 | 0.00 | 0.00 | 100 | 1023.3 |
| 20260509131541 | 44 | 259 | 0.0 | 0.0 | 0.00 | 0.00 | 0.00 | 100 | 1023.5 |
| 20260509130050 | 43 | 259 | 0.0 | 0.0 | 0.00 | 0.00 | 0.00 | 100 | 1023.5 |
| 20260509124539 | 44 | 259 | 0.0 | 0.0 | 0.00 | 0.00 | 0.00 | 100 | 1023.7 |
| 20260509123033 | 44 | 259 | 0.0 | 0.0 | 0.00 | 0.00 | 0.00 | 100 | 1023.7 |
| 20260509121530 | 44 | 259 | 0.0 | 0.0 | 0.00 | 0.00 | 0.00 | 100 | 1023.9 |
| 20260509120032 | 45 | 259 | 0.0 | 0.0 | 0.00 | 0.00 | 0.00 | 100 | 1024.1 |
| 20260509114526 | 45 | 259 | 0.0 | 0.0 | 0.00 | 0.00 | 0.00 | 100 | 1024.2 |
| 20260509113024 | 46 | 259 | 0.0 | 0.0 | 0.00 | 0.00 | 0.00 | 100 | 1024.1 |
| 20260509111522 | 46 | 259 | 0.0 | 0.0 | 0.00 | 0.00 | 0.00 | 100 | 1024.2 |
| 20260509110021 | 47 | 259 | 0.0 | 0.0 | 0.00 | 0.00 | 0.00 | 100 | 1024.3 |
| 20260509104518 | 48 | 259 | 0.0 | 0.0 | 0.00 | 0.00 | 0.00 | 100 | 1024.4 |
| 20260509103019 | 48 | 259 | 0.0 | 0.0 | 0.00 | 0.00 | 0.00 | 100 | 1024.3 |
| 20260509101516 | 47 | 259 | 0.0 | 0.0 | 0.00 | 0.00 | 0.00 | 100 | 1024.6 |
| 20260509100020 | 48 | 259 | 0.0 | 0.0 | 0.00 | 0.00 | 0.00 | 100 | 1024.5 |
| 20260509094510 | 49 | 259 | 0.0 | 0.0 | 0.00 | 0.00 | 0.00 | 99 | 1024.4 |
| 20260509093008 | 50 | 259 | 0.0 | 0.0 | 0.00 | 0.00 | 0.00 | 99 | 1024.4 |
| 20260509091504 | 51 | 259 | 0.0 | 0.0 | 0.00 | 0.00 | 0.00 | 100 | 1024.6 |
| 20260509090003 | 52 | 259 | 0.0 | 0.0 | 0.00 | 0.00 | 0.00 | 100 | 1024.6 |
| 20260509084600 | 52 | 259 | 0.0 | 0.0 | 0.00 | 0.00 | 0.00 | 100 | 1024.8 |
| 20260509083059 | 52 | 259 | 0.0 | 0.0 | 0.00 | 0.00 | 0.00 | 100 | 1024.9 |
| 20260509081603 | 52 | 259 | 0.0 | 0.0 | 0.00 | 0.00 | 0.00 | 100 | 1024.9 |
| 20260509080101 | 52 | 261 | 0.0 | 0.0 | 0.00 | 0.00 | 0.00 | 100 | 1024.9 |
| 20260509074555 | 52 | 261 | 0.0 | 0.0 | 0.00 | 0.00 | 0.00 | 100 | 1024.9 |
| 20260509073054 | 52 | 261 | 0.0 | 0.0 | 0.00 | 0.00 | 0.00 | 100 | 1024.9 |
| 20260509071557 | 52 | 261 | 0.0 | 0.0 | 0.00 | 0.00 | 0.00 | 100 | 1024.9 |
| 20260509070059 | 52 | 261 | 0.0 | 0.0 | 0.00 | 0.00 | 0.00 | 100 | 1024.9 |
| 20260509064554 | 52 | 261 | 0.0 | 0.0 | 0.00 | 0.00 | 0.00 | 100 | 1025.1 |
| 20260509063051 | 51 | 261 | 0.0 | 0.0 | 0.00 | 0.00 | 0.00 | 100 | 1025.1 |
| 20260509061606 | 51 | 261 | 0.0 | 0.0 | 0.00 | 0.00 | 0.00 | 100 | 1025.2 |
| 20260509060104 | 51 | 261 | 0.0 | 0.0 | 0.00 | 0.00 | 0.00 | 100 | 1025.2 |
| 20260509054553 | 51 | 261 | 0.0 | 0.0 | 0.00 | 0.00 | 0.00 | 100 | 1025.3 |
| 20260509053049 | 51 | 261 | 0.0 | 0.0 | 0.00 | 0.00 | 0.00 | 100 | 1025.2 |
| 20260509051548 | 51 | 261 | 0.0 | 0.0 | 0.00 | 0.00 | 0.00 | 100 | 1025.4 |
| 20260509044557 | 51 | 261 | 0.0 | 0.0 | 0.00 | 0.00 | 0.00 | 98 | 1025.0 |
| 20260509043046 | 52 | 261 | 0.0 | 0.0 | 0.00 | 0.00 | 0.00 | 97 | 1024.9 |
| 20260509041546 | 53 | 261 | 0.0 | 0.0 | 0.00 | 0.00 | 0.00 | 95 | 1024.9 |
| 20260509040045 | 54 | 261 | 0.0 | 0.0 | 0.00 | 0.00 | 0.00 | 95 | 1025.0 |
| 20260509034545 | 54 | 261 | 0.0 | 2.0 | 0.00 | 0.00 | 0.00 | 95 | 1024.9 |
| 20260509033045 | 55 | 261 | 0.0 | 2.0 | 0.00 | 0.00 | 0.00 | 94 | 1025.0 |
| 20260509031548 | 55 | 274 | 1.0 | 4.0 | 0.00 | 0.00 | 0.00 | 94 | 1024.9 |
| 20260509030044 | 55 | 208 | 0.0 | 4.0 | 0.00 | 0.00 | 0.00 | 94 | 1024.8 |
| 20260509024543 | 55 | 209 | 3.0 | 7.0 | 0.00 | 0.00 | 0.00 | 93 | 1024.8 |
| 20260509023055 | 55 | 274 | 0.0 | 5.0 | 0.00 | 0.00 | 0.00 | 93 | 1024.9 |
| 20260509021542 | 55 | 225 | 1.0 | 8.0 | 0.00 | 0.00 | 0.00 | 92 | 1024.8 |
| 20260509020042 | 56 | 219 | 1.0 | 7.0 | 0.00 | 0.00 | 0.00 | 91 | 1024.9 |
| 20260509014544 | 56 | 219 | 1.0 | 9.0 | 0.00 | 0.00 | 0.00 | 90 | 1024.8 |